View from above orbital plane
|
View from above satellite
|
Ground track
|
The orbit data is extracted from the following two-line orbital elements,
1 85U 61004C 22147.89533799 .00010307 00000-0 20105-2 0 9994
2 85 38.7690 352.3778 0372973 201.1739 157.3205 14.26741117 32111
Epoch (UTC): | 27 May 2022 21:29:17 |
Eccentricity: | 0.0372973 |
inclination: | 38.7690° |
perigee height: | 535 km |
apogee height: | 1070 km |
right ascension of ascending node: | 352.3778° |
argument of perigee: | 201.1739° |
revolutions per day: | 14.26741117 |
mean anomaly at epoch: | 157.3205° |
orbit number at epoch: | 3211 |
The dashed part of the orbit path shows where the satellite is in the earth's shadow,
|
|